TimeCST,TemperatureF,Dew PointF,Humidity,Sea Level PressureIn,VisibilityMPH,Wind Direction,Wind SpeedMPH,Gust SpeedMPH,PrecipitationIn,Events,Conditions,WindDirDegrees,DateUTC
12:52 AM,5.0,-5.1,63,30.55,-9999.0,WNW,5.8,-,N/A,,Unknown,290,2013-02-01 06:52:00
1:52 AM,3.9,-6.0,64,30.55,-9999.0,WNW,5.8,-,N/A,,Unknown,290,2013-02-01 07:52:00
2:52 AM,3.0,-6.0,66,30.54,-9999.0,NW,6.9,-,N/A,,Unknown,310,2013-02-01 08:52:00
3:52 AM,3.0,-7.1,63,30.54,-9999.0,NW,5.8,-,N/A,,Unknown,310,2013-02-01 09:52:00
4:52 AM,1.9,-7.1,66,30.53,-9999.0,Calm,Calm,-,N/A,,Unknown,0,2013-02-01 10:52:00
5:52 AM,1.9,-7.1,66,30.54,-9999.0,Calm,Calm,-,N/A,,Unknown,0,2013-02-01 11:52:00
6:52 AM,-0.0,-7.1,72,30.53,-9999.0,Calm,Calm,-,N/A,,Unknown,0,2013-02-01 12:52:00
7:52 AM,3.0,-6.0,66,30.55,-9999.0,NW,4.6,-,N/A,,Unknown,310,2013-02-01 13:52:00
8:52 AM,5.0,-7.1,58,30.56,-9999.0,Calm,Calm,-,N/A,,Unknown,0,2013-02-01 14:52:00
9:52 AM,6.1,-6.0,58,30.57,-9999.0,SSW,6.9,-,N/A,,Unknown,200,2013-02-01 15:52:00
10:52 AM,10.0,-2.0,58,30.55,-9999.0,South,4.6,-,N/A,,Unknown,180,2013-02-01 16:52:00
11:52 AM,12.0,-0.0,59,30.51,-9999.0,SSE,6.9,-,N/A,,Unknown,160,2013-02-01 17:52:00
12:52 PM,15.1,1.9,56,30.46,-9999.0,South,9.2,-,N/A,,Unknown,180,2013-02-01 18:52:00
1:52 PM,19.0,6.1,57,30.42,-9999.0,South,10.4,17.3,N/A,,Unknown,180,2013-02-01 19:52:00
2:52 PM,21.0,8.1,57,30.39,-9999.0,South,9.2,-,N/A,,Unknown,180,2013-02-01 20:52:00
3:52 PM,21.9,10.0,60,30.36,-9999.0,South,12.7,-,N/A,,Unknown,190,2013-02-01 21:52:00
4:52 PM,24.1,10.9,57,30.32,-9999.0,South,10.4,-,N/A,,Unknown,180,2013-02-01 22:52:00
5:52 PM,25.0,12.9,60,30.29,-9999.0,South,6.9,-,N/A,,Unknown,170,2013-02-01 23:52:00
6:52 PM,26.1,12.9,58,30.28,-9999.0,South,11.5,-,N/A,,Unknown,190,2013-02-02 00:52:00
7:52 PM,25.0,12.9,60,30.27,-9999.0,South,8.1,-,N/A,,Unknown,190,2013-02-02 01:52:00
8:52 PM,25.0,12.9,60,30.29,-9999.0,SSW,5.8,-,N/A,,Unknown,200,2013-02-02 02:52:00
9:52 PM,25.0,14.0,63,30.27,-9999.0,SSW,5.8,-,N/A,,Unknown,200,2013-02-02 03:52:00
10:52 PM,25.0,14.0,63,30.24,-9999.0,South,6.9,-,N/A,,Unknown,180,2013-02-02 04:52:00
11:52 PM,26.1,15.1,63,30.22,-9999.0,SSW,9.2,-,N/A,,Unknown,200,2013-02-02 05:52:00